Weather History for Indian Springs, NV

Change the Weather History Date:

Wednesday, April 3, 2013

  Actual Average (KDRA) Record (KDRA)
Temperature  
Mean Temperature 62 °F -  
Max Temperature 78 °F 65 °F 84 °F (2002)
Min Temperature 48 °F 40 °F 30 °F (1999)
Degree Days  
Heating Degree Days 2    
Growing Degree Days 12 (Base 50)    
Moisture  
Dew Point 26 °F    
Average Humidity 26    
Maximum Humidity 44    
Minimum Humidity 10    
Precipitation  
Precipitation 0.00 in - - ()
Sea Level Pressure  
Sea Level Pressure 30.09 in    
Wind  
Wind Speed 2 mph (South)    
Max Wind Speed 8 mph    
Max Gust Speed -    
Visibility 10 miles    
Events      
Averages and records for this station are not official NWS values.
T = Trace of Precipitation, MM = Missing Value Source: NWS Daily Summary

Daily Weather History Graph

Daily Weather History Graph

Search for Another Location

Airport:

Trip Planner

Search our weather history database for the weather conditions in past years. The results will help you decide how hot, cold, wet, or windy it might be!

Date:

Astronomy

Apr. 03, 2013 Rise Set
Actual Time 6:25 AM PDT 7:06 PM PDT
Civil Twilight 5:59 AM PDT 7:33 PM PDT
Nautical Twilight 5:28 AM PDT 8:03 PM PDT
Astronomical Twilight 4:56 AM PDT 8:35 PM PDT
Moon 1:59 AM PDT (4/3) 12:33 PM PDT (4/3)
Length of Visible Light 13h 33m
Length of Day
12h 41m
Last Quarter, 43% of the Moon is Illuminated
Apr 3
Last Quarter
Apr 10
New
Apr 18
First Quarter
Apr 25
Full
May 2
Last Quarter

Hourly Weather History & Observations

Time (PDT) Temp. Dew Point Humidity Pressure Visibility Wind Dir Wind Speed Gust Speed Precip Events Conditions
12:58 AM 55.6 °F 26.2 °F 32% 30.06 in 10.0 mi West 2.3 mph - N/A   Clear
1:58 AM 55.4 °F 26.6 °F 33% 30.07 in 10.0 mi NW 2.3 mph - N/A   Clear
2:58 AM 53.2 °F 27.1 °F 37% 30.08 in 10.0 mi Calm Calm - N/A   Clear
3:58 AM 50.9 °F 27.3 °F 40% 30.08 in 10.0 mi West 2.3 mph - N/A   Clear
4:58 AM 50.5 °F 27.3 °F 41% 30.09 in 10.0 mi Calm Calm - N/A   Clear
5:58 AM 48.7 °F 27.9 °F 44% 30.10 in 10.0 mi East 2.3 mph - N/A   Clear
6:58 AM 49.6 °F 28.2 °F 44% 30.11 in 10.0 mi Calm Calm - N/A   Clear
7:58 AM 53.1 °F 30.0 °F 41% 30.13 in 10.0 mi West 2.3 mph - N/A   Clear
8:58 AM 58.5 °F 30.4 °F 34% 30.15 in 10.0 mi Calm Calm - N/A   Clear
9:58 AM 65.7 °F 31.6 °F 28% 30.15 in 10.0 mi Variable 2.3 mph - N/A   Clear
10:58 AM 69.3 °F 32.0 °F 25% 30.15 in 10.0 mi North 3.5 mph - N/A   Clear
11:58 AM 71.6 °F 31.1 °F 22% 30.14 in 10.0 mi SSE 3.5 mph - N/A   Partly Cloudy
12:58 PM 73.0 °F 26.1 °F 17% 30.12 in 10.0 mi Variable 1.2 mph - N/A   Partly Cloudy
1:58 PM 75.6 °F 19.0 °F 12% 30.10 in 10.0 mi Calm Calm - N/A   Partly Cloudy
2:58 PM 77.5 °F 17.2 °F 10% 30.08 in 10.0 mi Variable 4.6 mph - N/A   Clear
3:58 PM 77.0 °F 21.0 °F 12% 30.06 in 10.0 mi Variable 2.3 mph - N/A   Clear
4:58 PM 77.0 °F 21.2 °F 12% 30.03 in 10.0 mi Calm Calm - N/A   Clear
5:58 PM 76.6 °F 20.8 °F 12% 30.02 in 10.0 mi ENE 4.6 mph - N/A   Clear
6:58 PM 75.9 °F 21.0 °F 13% 30.03 in 10.0 mi SE 8.1 mph - N/A   Clear
7:58 PM 72.3 °F 27.0 °F 18% 30.04 in 10.0 mi South 6.9 mph - N/A   Clear
8:58 PM 71.1 °F 28.4 °F 20% 30.06 in 10.0 mi South 5.8 mph - N/A   Clear
9:58 PM 66.7 °F 23.5 °F 19% 30.07 in 10.0 mi North 2.3 mph - N/A   Clear
10:58 PM 64.2 °F 24.8 °F 22% 30.07 in 10.0 mi Calm Calm - N/A   Clear
11:58 PM 61.3 °F 27.3 °F 27% 30.07 in 10.0 mi SE 5.8 mph - N/A   Clear